Dewpoint
58 58 58 58 58 58 58 59 58 58 59 59 59 59 58 58 58 59 58 58 58 57 59 57 59 57 59 57 58 54 51 28 29 28 23 24 38 56 57 58 57 60 57 38 32 30 27 29 27 26 23 26 28 28 29 37 46 46 44 41 41 42 40 40 38 31 30 29 27 30 33 36 31 33 32 35 34 37 37 39 40 40 38 38 39 40 40 42
58 57 57 57 58 57 58 58 58 58 58 58 58 59 59 59 58 58 59 58 58 58 59 59 58 58 59 58 57 53 36 28 25 25 24 36 57 58 59 57 58 59 41 26 23 27 25 27 26 23 21 23 27 25 34 31 42 43 38 40 39 40 42 38 33 31 29 33 27 29 32 36 32 31 32 33 33 34 35 35 37 38 39 40 37 40 42 42
58 57 57 57 57 57 57 57 57 57 58 58 58 58 58 59 59 59 59 59 58 58 58 59 59 58 58 59 57 45 29 15 16 16 24 52 55 56 57 58 59 57 33 24 29 27 23 24 25 22 21 21 21 24 30 28 37 38 40 38 38 38 39 38 30 34 29 26 22 20 27 35 34 32 33 31 29 32 33 32 36 37 37 38 38 40 42 42
57 56 56 57 57 57 57 57 57 57 57 58 58 58 58 58 58 59 58 58 59 58 58 58 59 59 59 57 55 31 15 13 10 17 24 52 57 54 57 59 58 50 39 37 31 25 22 21 22 22 22 23 22 27 28 28 33 34 37 36 35 36 37 37 36 33 27 19 21 25 28 29 30 32 31 31 28 27 29 32 31 31 35 36 39 40 41 42
56 56 56 56 56 57 57 57 57 57 57 57 58 57 57 58 58 58 59 59 58 59 59 58 58 58 58 52 46 18 15 7 8 16 21 53 53 56 60 58 56 45 38 38 28 23 20 18 19 21 22 21 23 23 24 28 34 37 35 36 36 30 32 33 27 20 17 17 22 27 22 20 28 30 31 31 27 24 24 27 32 33 32 33 38 39 41 42
56 56 57 57 56 56 57 57 57 57 57 58 58 58 57 57 58 58 58 58 58 58 59 59 58 59 54 51 26 24 10 3 20 23 44 54 55 60 59 57 52 34 27 25 24 21 21 19 17 19 19 17 19 15 16 25 30 25 27 31 32 30 33 30 18 18 16 17 18 19 24 25 27 27 29 31 29 26 27 28 31 33 34 35 37 40 40 41
56 56 56 56 56 57 56 57 57 57 58 58 57 57 57 57 57 57 57 58 58 58 58 59 58 58 56 46 31 20 15 12 19 25 49 52 56 59 58 55 47 31 24 23 23 20 18 16 17 21 17 16 14 16 16 23 24 28 23 27 27 19 27 21 17 16 15 16 16 18 20 19 24 19 25 29 30 30 29 32 33 30 32 36 38 39 40 41
57 56 56 56 56 56 56 56 56 56 57 58 57 57 57 57 57 57 57 57 57 56 57 58 58 57 50 27 22 20 17 16 16 27 46 48 44 50 43 30 28 26 23 23 20 18 16 15 14 18 14 11 14 17 23 19 23 25 25 26 27 16 17 16 15 15 16 16 16 17 15 15 17 19 20 19 23 26 29 31 28 32 35 36 37 38 39 41
56 56 56 56 56 57 56 56 56 56 56 57 57 57 57 57 57 57 57 57 57 57 58 58 57 53 46 25 19 15 12 14 18 24 29 25 26 33 33 23 25 22 23 24 25 20 17 17 14 11 14 17 18 21 24 18 16 23 21 20 15 15 16 17 15 15 15 15 17 16 15 16 15 19 15 16 17 19 22 25 28 29 31 34 35 37 39 40
56 56 56 56 56 56 56 56 56 56 56 56 57 57 57 56 56 56 56 56 57 57 58 58 55 49 31 20 19 11 15 19 27 26 26 24 23 22 22 23 21 21 20 20 20 18 17 16 15 15 15 15 20 21 23 18 17 23 23 20 15 14 16 17 15 15 16 16 16 14 14 14 16 15 11 14 15 21 20 20 23 27 28 29 32 35 38 39
56 56 56 56 56 57 56 56 55 55 56 56 57 57 57 56 56 56 56 57 57 57 58 58 57 49 28 19 14 11 19 22 27 24 25 24 22 21 22 23 21 20 19 20 19 19 19 17 17 16 22 19 20 20 21 22 20 16 16 15 14 15 16 16 16 15 16 13 15 15 14 15 15 16 13 11 20 23 18 18 20 23 25 26 29 33 36 38
56 56 56 56 57 56 56 56 55 56 56 56 57 57 56 56 56 56 56 56 57 58 58 56 52 28 24 22 15 13 22 23 28 23 23 21 21 23 23 23 20 19 19 18 19 19 18 19 17 22 17 17 16 18 19 22 17 17 18 13 16 14 11 13 14 15 16 13 16 16 13 12 14 13 14 15 18 19 19 17 18 20 22 25 28 31 35 36
56 56 56 56 56 56 56 56 56 56 56 56 56 56 57 56 56 56 56 57 58 58 57 50 43 31 24 17 18 20 25 25 24 22 21 22 22 20 24 23 21 20 19 18 17 18 21 20 18 17 22 18 21 16 21 19 18 19 16 16 13 13 9 11 17 15 15 15 15 15 9 9 11 13 13 15 17 19 17 17 18 18 20 22 28 29 31 34
56 56 56 56 57 57 56 56 56 56 56 56 56 56 56 56 56 57 57 57 58 58 57 50 36 31 24 19 22 22 23 25 20 19 19 23 15 14 21 21 22 21 22 19 21 26 24 22 22 23 28 22 21 22 17 19 19 14 17 18 11 10 8 12 16 16 15 16 15 16 10 9 10 11 15 15 16 16 14 15 15 15 17 19 23 26 28 30
56 56 56 56 56 57 57 56 56 56 56 56 56 56 56 56 57 57 57 57 58 57 51 47 32 28 24 24 25 27 46 20 18 18 20 17 16 13 13 19 21 20 21 19 23 27 24 21 20 19 18 25 24 19 17 15 17 20 9 13 16 8 12 15 21 17 14 15 15 15 13 12 11 11 14 16 17 16 15 15 15 15 15 16 17 21 25 27
56 56 56 55 56 56 57 56 57 56 56 56 56 56 56 58 57 57 57 56 58 54 36 31 34 30 25 22 17 36 19 18 18 19 20 20 16 18 18 21 21 19 18 19 24 24 25 24 19 20 20 18 18 16 18 14 16 16 7 10 8 12 13 14 18 19 17 15 15 14 12 11 10 10 15 17 17 16 15 14 14 14 15 15 15 16 19 23
56 55 56 54 56 56 56 57 56 56 56 56 56 56 57 58 58 58 57 53 47 42 30 31 32 31 21 22 21 17 17 18 19 18 18 21 21 20 21 19 19 17 18 20 21 18 20 18 21 21 23 16 21 19 11 11 10 10 16 11 12 9 12 13 16 17 18 15 14 16 15 13 12 12 13 16 16 15 14 14 14 14 14 14 15 15 15 17
55 55 54 54 57 56 56 56 57 57 57 56 56 56 53 54 54 51 46 42 37 37 36 34 28 19 18 16 15 15 18 17 18 18 19 17 22 22 20 20 21 16 16 15 16 16 18 16 21 17 19 19 18 15 5 5 3 1 6 8 10 15 16 13 13 16 18 18 15 15 13 14 14 14 14 13 15 14 14 14 13 13 14 14 15 15 15 15
55 55 54 56 56 57 56 56 54 56 56 56 56 55 50 48 37 33 33 32 24 23 18 22 20 16 14 12 13 15 17 18 19 15 13 17 22 22 23 19 17 16 17 13 14 16 19 20 21 17 14 16 16 16 13 12 9 7 7 10 11 13 12 15 16 18 18 17 18 16 15 12 10 10 12 14 15 14 14 14 14 14 14 14 14 14 15 16
55 55 54 55 56 56 55 56 55 56 52 45 39 37 38 32 30 28 33 27 21 20 19 22 24 22 18 14 14 16 19 16 16 15 16 19 22 18 16 17 18 19 17 16 19 21 23 15 12 14 14 14 15 16 15 13 12 16 17 16 15 15 16 17 18 18 22 18 16 17 17 16 16 16 15 13 12 13 13 11 10 10 10 10 11 11 13 14
55 55 55 54 55 57 54 55 55 56 52 41 37 34 23 28 22 23 15 18 26 27 24 24 24 16 16 15 16 18 10 12 14 15 15 28 17 10 8 14 16 16 15 19 18 22 19 15 14 16 14 13 15 17 20 19 18 16 16 17 17 17 16 15 15 18 18 14 15 18 12 11 10 8 5 3 1 -1 -2 -3 -3 -3 -1 2 7 8 10 11
55 55 54 55 55 55 56 55 54 53 51 39 34 29 29 32 30 26 20 13 21 26 26 20 26 19 16 17 17 18 12 10 10 14 13 18 15 5 8 13 11 8 15 20 16 16 16 15 14 14 17 20 21 20 20 18 20 19 17 16 15 16 17 16 13 13 17 14 13 11 8 6 5 4 3 1 -1 -1 -2 -2 -3 -3 -3 -2 -2 3 6 7
55 55 54 54 55 55 56 56 54 52 38 36 34 34 33 39 41 39 23 19 19 24 21 21 18 15 14 15 17 17 10 8 6 8 14 17 10 14 15 10 12 16 13 16 12 10 8 11 13 16 19 17 17 19 18 18 19 17 16 15 15 14 9 10 9 9 15 12 9 15 10 5 2 0 -1 -2 -5 -3 -2 -1 4 6 -0 -3 -4 1 6 5
54 54 53 52 53 56 55 54 52 38 39 35 34 32 39 40 40 34 28 20 19 25 24 20 18 15 14 14 17 13 12 12 8 8 17 18 12 15 14 9 14 12 10 14 12 10 4 11 19 19 17 16 15 17 16 16 15 16 16 16 15 14 12 10 8 2 4 -4 10 5 0 2 2 -4 -12 -10 -6 1 2 -2 0 2 10 9 11 9 10 10
55 54 53 52 54 56 54 48 31 27 39 27 28 35 39 39 40 34 20 13 17 19 27 24 21 19 17 19 19 16 16 15 12 11 16 20 19 12 11 16 13 9 10 18 15 15 13 13 18 16 16 15 14 14 16 15 14 12 14 15 14 13 11 9 7 -2 -4 -11 -6 3 -12 -8 -10 -11 -16 -14 -12 -12 0 3 4 4 3 6 6 7 9 11
55 55 54 55 54 55 54 32 24 33 31 29 28 37 38 39 35 28 19 14 2 18 22 17 21 16 17 15 18 19 14 14 16 17 30 25 27 17 18 17 5 3 16 15 15 15 10 15 16 14 15 14 14 13 13 15 12 5 10 13 15 13 11 8 6 -7 -3 -7 -9 -9 -18 -7 -19 -12 -16 -13 -12 -7 1 3 4 6 6 8 10 10 11 12
54 54 54 54 55 55 27 26 25 30 25 27 41 41 41 43 38 26 19 8 -2 14 21 24 19 18 20 19 21 16 8 6 15 18 17 22 18 24 12 13 18 21 21 21 8 -1 11 11 15 15 14 14 13 12 13 14 9 9 9 12 11 9 9 4 0 -5 -3 4 2 -5 -12 -9 -7 -9 -8 -9 -2 -0 1 5 8 9 10 12 13 14 15 15
55 53 55 55 54 46 28 30 28 27 24 34 41 41 40 37 37 28 11 -17 -19 23 19 23 21 25 24 25 19 19 17 17 9 16 19 21 17 16 15 15 16 17 19 2 -5 6 8 8 13 14 13 13 11 12 12 13 10 11 12 8 6 6 6 3 -1 -2 -1 -3 -0 -3 -4 -10 -3 -5 -3 1 -4 -0 4 6 10 11 12 13 15 15 16 16
55 55 54 54 52 48 38 32 29 26 35 41 39 41 36 32 27 12 -1 -14 -12 23 25 21 27 19 21 23 21 21 21 21 11 16 20 21 20 15 9 14 17 19 20 6 2 7 9 5 8 12 11 9 12 14 14 12 8 7 14 16 15 13 11 6 4 2 3 -4 -2 -8 -7 -11 -6 -6 -7 -5 1 3 8 8 11 12 13 14 16 16 17 17
54 54 53 51 42 40 38 37 39 41 41 40 38 35 31 27 17 14 -13 -20 17 5 24 23 20 20 21 17 19 20 17 18 19 20 19 18 19 19 22 22 19 17 15 17 13 9 13 26 20 11 9 8 13 14 13 15 13 14 7 -2 -7 3 10 8 4 4 -1 -11 -3 -1 -8 -12 -6 -3 -4 1 4 9 11 11 13 14 15 16 17 17 18 18
53 53 50 47 33 35 36 34 34 41 40 40 33 29 25 17 10 -2 -16 3 15 17 21 20 18 24 19 14 14 20 20 19 19 16 16 19 16 21 19 15 18 9 14 13 10 10 3 16 14 16 17 14 13 9 9 15 13 3 0 -9 -3 -4 -5 0 3 3 -8 -3 1 1 -3 -4 -9 -3 2 8 10 11 13 13 13 15 15 16 17 18 19 19
53 52 52 45 43 35 31 34 38 43 38 34 29 22 16 4 -0 -9 -13 15 7 11 11 14 20 20 20 18 16 17 15 17 19 18 17 11 12 12 12 6 8 -2 6 4 4 5 0 7 15 15 24 11 10 6 4 10 6 3 4 5 -4 -2 -9 -7 -5 -12 -9 -3 -2 -3 1 -7 -7 -2 6 10 11 12 14 15 15 16 16 17 18 19 20 20
51 50 49 46 44 40 40 38 42 44 37 34 26 19 7 6 -14 1 3 8 -3 13 12 20 18 19 19 14 11 15 19 10 17 20 17 18 13 14 14 8 8 -3 -3 3 -4 -1 1 5 13 15 10 18 5 2 2 -4 6 3 3 3 -2 -12 -17 -14 -4 -10 -7 -3 -2 1 2 -4 -3 2 7 10 12 13 14 16 17 17 17 18 18 19 20 20
49 48 39 43 43 43 43 41 41 41 31 34 16 7 10 -11 -9 22 7 13 10 19 22 20 19 15 16 8 10 18 12 11 15 14 17 14 11 9 12 12 12 2 -8 -7 -5 -6 -7 2 1 11 3 9 9 4 -1 -4 3 5 4 -3 5 1 -10 -8 -11 -8 -3 -0 -0 1 -11 -3 -6 6 9 11 13 14 15 16 17 19 19 19 19 20 20 20
48 42 39 36 37 38 41 38 40 38 31 25 15 14 -2 -2 -3 -5 3 9 16 16 17 21 13 11 11 12 13 18 12 7 12 10 12 9 3 9 7 4 12 2 -2 -1 7 -8 -12 -6 -5 15 12 12 11 11 4 2 2 7 -4 -1 -3 -0 5 -6 -1 -5 -12 -9 -5 -8 -4 4 1 8 12 14 15 15 16 16 18 18 19 19 20 20 20 20
43 36 36 32 36 35 38 39 35 30 25 19 14 -2 -3 -0 -5 5 13 16 19 17 17 11 8 2 4 10 5 14 17 7 11 4 5 12 10 4 8 5 11 7 -1 -3 4 -7 2 -6 3 14 12 11 10 8 6 -3 -2 0 -5 -5 5 6 -8 -9 3 -4 -5 -4 -6 -7 -7 -7 5 8 11 14 16 16 16 16 17 18 19 19 20 20 20 20
36 36 30 32 32 34 37 34 35 27 20 15 14 -2 6 12 1 8 29 17 18 19 3 7 8 1 1 4 4 8 10 10 11 2 -0 4 -7 9 7 8 12 14 6 1 8 -1 -4 -0 3 9 7 14 12 12 12 13 2 2 -3 -2 1 -1 -3 -5 -7 -4 -10 -7 -4 -7 -4 1 -5 -0 12 14 15 15 16 16 16 18 19 19 20 20 20 19
35 35 34 30 32 37 36 35 31 25 21 16 0 25 18 14 18 18 24 21 19 13 9 -0 8 6 3 3 9 6 8 2 7 5 3 2 -3 6 9 6 12 15 16 14 -2 11 12 4 1 7 7 9 10 15 10 14 10 -1 1 7 1 -1 1 7 -2 -7 -6 -5 -2 1 0 -2 -4 2 12 14 15 14 15 15 16 18 19 19 19 20 19 19
33 29 22 26 33 38 37 35 29 25 17 7 4 9 22 15 20 24 26 24 17 12 10 8 -0 2 6 4 6 10 10 6 8 7 -4 -1 -8 3 7 6 5 18 17 13 6 9 5 1 3 8 9 10 5 6 3 9 9 11 7 4 6 0 1 -3 3 1 -5 -3 -1 1 3 1 9 10 14 15 16 15 15 15 16 18 19 19 19 20 19 18
31 24 18 24 34 37 36 35 30 21 15 2 7 10 18 19 21 25 26 24 19 14 13 8 9 6 8 7 8 6 9 8 6 7 0 0 2 10 11 12 11 12 16 13 7 12 8 1 -1 1 7 3 5 5 1 3 6 7 6 7 3 -0 5 7 -2 -2 -0 -1 -0 -0 -1 1 10 14 16 16 16 16 15 15 16 18 20 19 19 20 19 18
29 25 23 30 35 36 33 28 22 18 15 18 19 18 22 21 26 26 26 25 24 22 17 12 13 10 8 13 12 11 9 10 9 5 4 4 1 2 10 16 14 11 14 12 12 12 5 -1 3 1 1 3 1 7 5 5 3 5 6 4 8 2 2 1 2 -1 -5 -3 1 -2 1 5 12 15 17 17 17 16 16 15 16 18 20 19 19 20 19 18
23 15 20 27 35 33 29 20 16 22 20 15 14 20 26 33 22 21 25 25 21 21 23 18 17 16 15 13 12 12 10 10 10 8 9 3 6 2 7 15 15 15 11 13 10 14 9 4 0 5 5 4 4 3 10 6 5 7 5 5 9 5 3 -2 1 5 4 5 2 3 3 7 15 16 18 19 19 18 17 17 17 18 20 19 19 21 21 19
22 17 26 31 35 30 19 9 22 17 13 19 22 22 25 23 22 24 22 23 21 21 19 20 18 14 13 14 14 13 11 7 10 8 8 11 10 11 14 16 15 13 11 15 17 10 20 3 -0 5 6 6 4 2 3 7 5 11 7 10 10 5 4 5 7 10 7 7 7 6 1 8 14 19 19 17 20 20 18 18 18 18 19 21 19 19 20 19
25 22 22 30 33 31 19 5 12 14 18 23 23 23 23 22 24 22 23 23 20 21 18 19 13 16 14 17 14 15 12 5 9 8 9 12 9 17 18 20 19 18 15 13 11 12 5 12 5 5 6 8 8 7 1 6 10 9 5 12 11 8 6 4 4 3 2 8 9 8 4 10 16 18 18 16 14 12 15 16 16 17 15 17 18 17 17 19
21 22 27 27 29 28 18 18 19 11 17 18 18 16 19 19 24 24 24 23 24 21 17 16 17 17 18 19 17 17 18 9 10 12 9 10 11 15 19 22 22 20 22 22 29 21 5 11 2 1 2 2 2 3 6 9 11 11 12 10 11 6 6 6 6 4 6 10 9 8 7 9 16 15 14 15 11 10 11 15 15 17 14 13 18 17 16 14
16 7 18 20 23 24 24 24 23 20 12 12 9 14 19 16 18 23 23 24 24 24 19 18 22 19 18 16 15 16 16 16 12 11 12 13 15 15 17 18 20 21 27 30 29 12 4 7 4 4 3 4 8 8 10 15 13 11 11 7 9 8 4 3 4 5 6 10 7 8 10 11 10 12 11 13 11 9 10 11 12 16 15 14 17 17 16 14
19 16 16 11 20 18 20 23 22 21 15 17 10 14 11 16 17 13 24 21 23 25 24 23 22 16 17 17 15 15 17 15 15 13 12 10 12 17 18 19 19 23 29 25 22 8 3 5 8 11 6 8 10 10 11 15 12 12 8 9 9 9 6 3 5 7 12 9 4 12 10 9 9 11 10 11 12 10 9 8 7 13 15 13 15 17 18 12
6 9 23 21 15 8 11 14 22 22 22 20 13 17 15 14 14 10 14 24 23 22 15 17 18 20 19 18 17 12 14 14 13 8 9 10 14 17 17 18 19 22 23 19 15 10 4 5 4 8 7 9 11 12 13 13 11 12 10 10 10 12 7 3 5 11 12 6 3 6 9 9 10 11 11 12 12 10 8 7 7 10 14 13 14 16 13 10
19 19 22 23 11 12 16 20 25 21 20 22 23 19 15 14 12 15 14 15 17 17 18 12 17 20 20 21 18 12 14 7 6 11 8 9 13 13 11 11 16 19 19 18 14 6 6 1 2 7 10 10 11 12 12 11 10 11 7 8 9 12 11 8 8 8 10 9 10 10 10 9 9 11 11 10 11 9 7 7 7 9 12 11 14 14 10 8
20 16 13 22 23 21 21 21 22 19 16 22 7 16 17 16 15 17 18 17 14 17 20 18 20 21 21 21 19 13 17 18 17 13 13 14 14 11 12 12 14 18 18 16 12 12 8 1 10 2 3 4 7 8 8 10 8 8 7 7 8 10 13 11 9 8 9 8 9 9 9 8 11 12 11 11 9 9 7 6 7 9 8 9 13 11 9 8
24 24 23 19 18 19 23 20 19 19 16 18 13 14 22 17 17 19 17 21 19 19 20 20 21 21 20 20 18 16 20 20 20 20 20 19 13 17 12 12 19 14 13 10 7 8 6 4 -3 -7 0 -1 8 9 11 10 8 5 6 5 7 8 7 11 8 10 9 8 9 10 8 7 11 12 13 11 9 8 7 7 7 7 7 9 12 10 9 8
27 29 24 20 14 20 17 18 18 18 13 18 19 17 17 18 19 20 15 18 22 23 22 21 21 20 16 13 11 19 21 21 22 22 22 22 22 21 21 21 20 15 11 11 7 4 5 2 2 -0 0 -3 2 10 8 7 7 1 -1 5 7 8 10 9 7 7 7 8 9 7 8 12 11 12 11 11 10 9 8 7 8 6 6 10 11 10 9 7